Location: Newark
(35.6799°N, 139.7636°E)
Time: 12:46:39
(UTC+00:00)

Vanguard 2 - Visible Passes

Search period start: 06 December 2019 00:00
Search period end: 16 December 2019 00:00
Orbit: 553 x 2938 km, 32.9° (Epoch: 05 December)

Date Brightness Start Highest point End Pass type
(mag) Time Alt. Az. Time Alt. Az. Time Alt. Az.
06 Dec 11.9 14:54:03 12° E 14:54:03 12° E 14:54:58 10° E visible
06 Dec 10.6 16:55:28 54° ESE 16:55:28 54° ESE 17:08:46 10° E visible
06 Dec 10.2 18:56:53 43° WSW 19:04:58 80° S 19:19:50 10° E visible
06 Dec 10.2 21:00:11 10° W 21:17:32 74° SSW 21:29:17 10° ESE visible
07 Dec 11.7 15:10:58 17° E 15:10:58 17° E 15:13:58 10° E visible
07 Dec 10.4 17:12:23 64° SE 17:12:23 64° SE 17:26:59 10° E visible
07 Dec 10.2 19:13:48 37° W 19:23:15 81° S 19:37:54 10° E visible
08 Dec 11.5 15:27:50 22° E 15:27:50 22° E 15:32:37 10° E visible
08 Dec 10.2 17:29:15 72° SE 17:29:15 72° SE 17:45:09 10° E visible
08 Dec 10.2 19:30:39 32° W 19:41:30 80° S 19:55:56 10° E visible
09 Dec 11.3 15:44:39 27° E 15:44:39 27° E 15:51:03 10° E visible
09 Dec 10.1 17:46:04 78° S 17:46:28 78° S 18:03:20 10° E visible
09 Dec 10.2 19:47:28 27° W 19:59:43 78° S 20:13:55 10° ESE visible
10 Dec 11.1 16:01:27 33° E 16:01:27 33° E 16:09:23 10° E visible
10 Dec 10.1 18:02:51 75° SW 18:04:44 81° S 18:21:29 10° E visible
10 Dec 10.3 20:04:15 22° W 20:17:52 73° SSW 20:31:49 10° ESE visible
11 Dec 10.9 16:18:13 40° E 16:18:13 40° E 16:27:39 10° E visible
11 Dec 10.1 18:19:36 67° WSW 18:23:01 81° S 18:39:37 10° E visible
11 Dec 10.4 20:21:01 17° W 20:35:54 66° SSW 20:49:34 10° ESE visible
12 Dec 10.7 16:34:58 47° E 16:34:58 47° E 16:45:54 10° E visible
12 Dec 10.2 18:36:23 59° WSW 18:41:18 80° S 18:57:43 10° ESE visible
12 Dec 10.5 20:37:46 13° W 20:53:49 58° SSW 21:07:11 10° SE visible
13 Dec 11.9 14:50:20 11° E 14:50:20 11° E 14:50:54 10° E visible
13 Dec 10.6 16:51:44 55° E 16:51:44 55° E 17:04:08 10° E visible
13 Dec 10.2 18:53:08 50° W 18:59:32 76° SSW 19:15:43 10° ESE visible
13 Dec 10.6 20:54:52 10° W 21:11:34 50° SSW 21:24:33 10° SE visible
14 Dec 11.7 15:07:05 15° E 15:07:05 15° E 15:09:16 10° E visible
14 Dec 10.4 17:08:29 63° ESE 17:08:29 63° ESE 17:22:22 10° E visible
14 Dec 10.3 19:09:53 43° W 19:17:41 71° SSW 19:33:38 10° ESE visible
14 Dec 10.8 21:13:25 10° W 21:29:11 41° SW 21:41:40 10° SSE visible
15 Dec 11.6 15:23:52 20° E 15:23:52 20° E 15:27:36 10° E visible
15 Dec 10.2 17:25:15 71° ESE 17:25:15 71° ESE 17:40:33 10° E visible
15 Dec 10.4 19:26:40 36° W 19:35:43 64° SSW 19:51:22 10° SE visible
